Wind_Speed
27 27 27 27 27 27 27 26 26 27 28 28 28 27 26 26 27 27 27 27 26 27 27 27 28 28 28 28 28 28 28 29 31 31 31 31 31 29 27 26 26 26 26 27 28 30 31 31 30 28 26 25 24 23 23 22 22 22 22 22 22 22 22 22 22 21 21 21 22
27 28 28 28 28 28 28 27 28 28 28 28 27 26 26 26 27 28 28 27 27 27 27 27 27 27 28 28 27 27 28 29 31 31 31 31 31 29 28 27 26 26 26 27 29 31 32 32 31 29 27 26 24 23 23 22 22 22 23 22 22 22 22 21 20 20 20 21 22
27 28 28 29 29 29 29 29 29 29 29 28 27 26 26 27 28 28 28 28 27 26 26 27 27 27 27 27 27 27 28 29 30 30 31 31 31 30 29 28 28 27 27 28 29 31 33 33 32 31 29 28 26 24 23 23 22 23 23 22 22 21 21 21 20 21 22 23 24
27 28 28 29 29 30 29 29 30 30 29 29 28 27 27 28 29 29 28 28 27 26 26 27 27 27 26 26 26 26 27 29 29 30 31 31 31 30 30 29 29 29 28 28 29 31 33 34 33 32 31 29 27 25 24 23 23 23 23 23 22 21 21 21 21 21 22 24 24
27 27 28 29 29 30 30 30 30 30 30 29 28 28 29 29 29 29 29 28 27 27 26 27 26 26 25 25 25 26 27 28 28 30 31 31 30 30 30 30 30 30 30 29 29 30 32 33 33 32 32 31 28 26 24 23 22 23 23 23 23 22 21 21 21 22 22 23 23
28 28 28 29 29 30 30 30 30 30 30 29 29 29 30 30 30 30 30 29 28 27 27 27 26 25 24 24 24 26 27 27 28 30 31 31 30 30 31 31 31 31 30 30 30 30 31 33 33 33 33 32 30 27 25 23 21 21 21 22 23 23 23 23 22 22 23 24 25
28 28 29 29 30 30 30 30 30 30 30 29 29 30 30 31 31 30 30 29 28 27 27 27 26 25 24 24 24 25 26 27 28 29 31 31 31 31 31 31 31 31 31 31 31 31 31 32 33 34 34 34 32 30 27 24 22 21 21 21 21 22 23 23 23 23 24 25 26
29 29 30 30 30 31 31 31 31 31 30 30 30 30 31 31 31 30 30 29 28 27 27 27 26 25 24 23 24 25 25 26 27 29 30 31 31 31 31 31 31 31 31 31 31 31 31 32 32 33 34 35 34 33 30 27 24 23 22 21 21 20 21 22 22 23 23 24 25
31 31 31 31 31 31 32 32 31 31 31 30 31 31 31 31 30 30 30 30 29 27 27 26 26 25 24 23 23 24 24 25 26 28 29 30 31 31 32 32 32 31 31 31 31 31 31 31 32 32 33 34 35 34 33 30 28 25 24 23 23 22 22 21 21 21 22 23 23
32 32 32 32 32 32 32 32 32 32 31 31 31 31 31 31 30 30 30 30 29 27 26 26 25 25 24 23 23 23 23 23 24 26 28 30 31 32 32 33 32 32 31 30 31 31 31 31 32 32 32 32 33 34 34 32 30 27 25 24 24 24 23 22 20 20 21 22 23
32 32 33 33 33 33 33 33 33 32 32 32 32 32 31 31 31 30 30 29 29 28 27 26 25 25 24 24 24 24 23 23 24 25 27 29 30 31 32 32 32 32 31 30 30 30 31 31 31 31 31 31 32 32 32 32 31 29 26 25 24 23 23 22 20 19 19 21 24
33 33 33 33 33 33 33 33 33 33 33 32 32 32 32 32 31 31 30 30 29 28 27 26 25 25 24 24 24 24 24 24 24 25 27 28 30 31 31 32 32 31 30 29 28 29 30 30 30 30 30 30 30 31 31 30 30 29 27 25 24 23 22 22 20 18 17 18 22
33 33 33 33 33 33 33 33 33 33 33 32 32 32 32 32 32 31 31 30 29 29 28 27 25 25 24 24 24 25 25 25 25 26 27 28 29 30 31 31 31 31 29 28 27 28 28 29 29 29 29 29 29 29 29 29 28 28 27 25 23 22 21 21 20 18 16 15 18
33 33 33 33 33 33 33 33 33 33 33 32 32 32 32 32 32 31 31 30 30 29 28 27 26 25 25 24 24 25 25 25 25 26 27 28 29 29 30 30 30 29 28 27 27 26 26 27 27 27 27 27 28 28 28 28 27 27 26 24 22 21 20 20 20 18 16 15 16
33 33 33 33 32 32 32 32 32 32 32 32 32 32 32 32 32 31 31 30 30 29 28 28 27 26 25 24 24 24 25 25 25 26 26 27 28 28 28 28 28 27 27 26 26 25 25 24 24 25 25 26 27 28 28 28 27 26 26 25 22 20 18 18 18 18 17 16 16
33 33 32 32 31 31 31 31 32 32 32 32 32 32 32 31 31 31 30 30 29 29 28 28 28 27 26 25 24 24 24 24 25 25 26 27 27 27 27 27 27 26 25 25 25 24 22 21 22 23 24 25 27 27 28 28 27 27 26 25 23 21 19 17 16 16 16 16 17
33 32 32 31 31 31 31 31 31 31 32 32 32 32 31 31 30 30 29 29 29 28 28 27 27 27 26 26 25 24 24 24 24 24 25 25 26 26 26 27 26 25 24 25 25 23 20 19 21 23 24 25 26 27 28 28 28 27 27 25 24 23 21 19 16 14 13 14 15
32 32 31 31 31 31 31 31 31 32 32 32 32 31 31 30 30 29 29 28 28 28 27 27 27 26 26 25 25 24 24 24 24 24 24 24 24 25 26 26 26 24 24 25 26 22 18 19 21 23 25 26 26 27 28 28 28 28 27 26 25 23 22 21 19 16 13 11 11
32 32 31 31 31 31 31 31 31 32 32 32 32 31 30 30 29 29 28 28 27 27 27 27 26 25 25 24 24 23 23 23 23 23 23 23 24 25 26 27 26 24 24 26 26 22 18 19 22 24 25 26 27 27 27 27 28 27 27 26 25 24 23 22 21 20 17 13 9
31 31 31 31 31 31 31 31 32 32 32 32 31 30 30 30 30 29 29 28 27 27 26 26 25 25 24 23 23 23 22 22 22 22 22 22 23 25 27 27 26 24 24 27 28 24 19 20 23 25 26 26 27 27 27 26 26 26 26 26 25 24 23 23 22 21 20 18 13
31 31 31 31 31 31 31 31 32 32 32 31 30 30 30 30 31 30 30 29 27 27 26 26 25 24 23 23 22 22 22 22 21 21 22 23 24 26 28 28 25 23 24 28 30 26 21 19 23 25 26 26 26 26 26 25 24 24 24 24 24 23 23 22 22 21 21 20 18
31 30 30 30 30 30 31 31 32 31 31 30 30 30 31 32 32 31 30 29 28 27 26 25 24 23 22 22 21 21 21 21 21 21 22 23 24 27 28 28 24 22 25 30 33 31 24 18 22 25 25 25 25 25 24 23 22 22 22 22 22 22 22 22 22 21 21 20 20
30 30 30 30 30 31 31 31 31 31 30 30 30 31 32 33 32 32 31 29 28 27 26 25 24 23 22 21 20 20 21 21 21 21 22 23 25 27 29 27 22 21 24 30 36 35 27 18 21 24 24 24 24 23 22 20 20 20 20 20 20 20 20 21 21 21 21 20 20
30 30 30 30 30 31 31 32 31 31 30 30 31 32 33 33 33 32 31 30 28 27 26 25 24 23 22 21 20 20 20 21 22 22 23 24 26 28 29 26 22 21 23 29 36 36 29 18 20 23 24 23 22 21 19 18 18 19 19 19 18 18 18 19 20 21 21 21 20
29 29 30 30 31 31 32 32 31 31 30 31 32 33 34 34 33 33 32 30 29 27 26 25 25 24 24 22 21 20 19 20 22 23 24 25 27 29 29 26 23 22 23 27 33 36 30 19 20 22 23 22 21 19 18 17 18 18 18 17 17 17 17 18 19 20 21 22 21
29 29 30 30 31 31 32 32 32 31 31 32 33 33 34 34 33 33 32 30 28 27 26 26 26 26 26 25 23 21 20 20 22 24 25 27 28 29 29 27 25 23 24 26 30 35 32 19 19 21 22 21 19 18 18 17 18 17 17 16 16 16 17 18 19 20 21 22 22
29 29 30 30 31 32 32 32 32 32 32 33 33 34 34 33 33 32 31 30 28 27 27 27 28 28 28 26 24 23 21 21 22 23 25 27 29 30 30 28 26 25 25 26 28 34 33 21 18 19 20 19 18 18 17 17 17 17 17 16 17 17 19 20 21 22 23 23 23
29 29 30 30 31 32 32 33 33 33 33 33 33 33 33 33 32 32 31 29 27 27 27 28 29 29 28 27 26 24 23 22 22 24 26 27 29 30 30 29 28 27 26 26 27 32 33 26 19 17 17 17 16 16 17 17 17 17 18 18 19 20 21 22 22 23 24 24 24
29 30 30 30 31 32 33 33 33 33 33 33 33 32 32 32 32 32 31 29 27 27 27 28 29 29 28 28 26 25 24 23 23 24 26 28 29 29 29 29 28 28 27 26 26 29 33 33 21 15 15 14 14 14 15 16 16 16 17 19 21 22 22 23 23 24 24 25 25
30 30 30 30 31 32 33 33 33 33 33 32 32 32 32 32 32 32 31 29 27 26 26 27 28 28 27 27 26 25 24 23 23 24 26 28 29 29 29 29 29 28 27 26 26 28 33 37 23 15 14 13 12 12 13 14 15 15 16 18 20 21 22 23 23 23 23 24 24
30 30 30 30 31 31 32 33 33 33 32 32 32 32 32 32 32 31 30 28 26 25 25 26 26 26 26 25 25 24 24 24 24 25 26 28 29 29 29 28 28 28 28 27 26 27 31 37 26 18 14 12 11 10 11 12 13 14 15 16 18 19 21 21 22 22 22 22 23
30 30 30 30 31 31 32 32 33 33 32 32 32 32 32 32 32 30 29 26 25 24 25 26 26 25 25 24 24 24 24 24 25 26 27 28 28 28 28 28 28 28 28 28 27 27 30 35 27 20 16 13 10 9 9 10 11 12 13 15 16 17 18 19 20 20 20 20 21
30 30 30 30 31 31 32 32 33 33 33 32 32 32 31 31 31 30 28 26 24 24 24 25 25 25 24 24 24 24 25 25 26 27 27 27 27 27 27 27 27 27 27 28 27 27 29 33 28 22 17 15 11 10 9 9 9 10 12 13 15 15 16 17 18 18 18 19 20
30 30 30 30 31 31 31 32 33 33 33 33 32 32 31 31 31 30 28 26 24 23 23 23 24 24 24 24 25 25 25 26 26 27 27 27 27 27 27 26 25 25 26 26 27 27 29 32 29 23 19 18 14 12 10 9 8 9 10 12 13 14 14 14 15 16 16 16 17
30 30 31 31 31 31 31 32 32 33 33 33 33 32 32 31 31 30 28 26 24 23 23 22 22 22 23 23 24 25 26 26 26 26 26 27 27 27 27 26 24 23 23 24 26 27 29 31 30 25 21 20 18 14 11 10 9 8 9 10 12 12 12 12 13 15 15 15 15
30 30 31 31 31 31 31 32 32 33 33 33 33 32 32 31 31 30 28 27 25 24 23 23 22 22 23 23 24 25 26 26 26 25 26 26 28 29 29 26 24 22 22 23 26 28 28 29 30 27 24 22 20 16 13 11 9 9 9 9 10 11 10 10 11 14 16 15 14
30 30 31 31 31 31 31 31 32 32 32 32 32 32 32 31 30 30 29 27 26 25 24 24 23 23 24 24 25 25 26 25 24 24 24 26 28 30 30 27 24 22 22 23 27 29 29 27 29 29 27 24 20 16 13 11 10 9 9 9 9 9 9 8 9 13 16 18 16
29 30 31 31 31 31 31 31 31 31 31 31 31 31 31 30 30 30 29 27 26 25 25 25 24 24 24 24 24 24 24 24 23 22 22 25 27 29 30 28 25 23 22 24 27 30 29 26 28 31 31 27 21 16 13 11 10 9 9 9 9 8 8 7 7 11 16 20 20
29 29 30 31 31 31 31 31 31 31 31 30 30 30 30 29 29 29 28 27 26 25 25 24 24 24 24 24 24 23 23 22 21 20 20 22 24 27 29 28 26 24 23 25 28 30 29 26 28 32 33 29 22 16 13 11 10 9 9 9 9 8 7 7 6 8 13 19 21
28 29 29 30 30 31 31 31 30 30 30 29 29 29 29 28 28 27 27 26 25 25 25 24 24 24 24 23 22 22 21 21 20 18 17 18 21 24 27 28 27 25 24 25 28 30 28 26 27 30 33 31 24 17 13 12 11 10 9 9 9 8 8 7 6 7 10 15 19
28 28 29 29 30 30 30 30 30 30 29 29 28 28 27 27 26 26 26 25 25 25 24 24 24 24 23 22 20 20 20 20 19 18 16 16 18 21 25 27 27 26 25 26 28 29 28 26 26 28 32 32 27 19 13 12 11 10 9 9 9 9 8 7 7 7 9 11 15
Wind_Direction
357 356 355 353 351 349 347 345 343 342 342 344 345 345 342 338 335 333 333 333 333 333 335 336 337 338 339 340 341 342 343 344 343 342 343 347 349 349 347 346 346 348 350 353 354 352 349 347 344 340 335 331 326 321 316 312 311 308 304 300 295 290 285 280 276 274 273 272 271
357 356 355 353 352 351 349 347 347 346 347 349 349 347 343 340 337 336 336 337 337 336 337 337 339 340 340 340 341 343 345 345 343 341 342 346 349 350 349 349 349 350 353 357 358 355 353 352 351 348 345 339 334 328 323 317 314 312 308 303 298 293 288 283 281 281 280 277 273
358 356 354 353 353 352 351 350 350 350 351 352 352 349 346 343 341 340 339 339 339 338 339 339 340 341 341 340 342 345 347 346 342 340 341 346 348 350 350 350 349 350 354 358 359 358 357 356 355 354 351 346 341 334 328 323 319 316 313 308 303 297 291 287 285 282 278 274 271
358 356 354 352 353 353 353 352 351 351 352 353 352 350 348 346 345 344 342 341 340 340 341 341 341 341 341 340 342 346 349 347 341 340 342 345 347 349 350 350 349 349 352 356 358 359 359 358 357 355 353 350 345 339 332 327 321 317 315 313 310 304 297 291 285 279 276 274 274
358 356 354 353 353 353 353 353 352 352 352 352 352 350 349 349 348 347 345 343 342 341 342 342 342 341 340 341 344 348 349 346 340 340 343 345 346 348 349 350 349 349 350 353 356 358 359 359 358 356 353 351 347 341 335 328 321 317 314 314 314 312 306 298 288 282 280 281 284
357 356 354 353 354 353 353 352 352 352 352 352 350 349 349 349 350 349 347 345 343 342 342 343 342 342 341 342 346 349 349 344 340 341 344 345 346 347 348 349 349 349 349 351 353 355 357 358 358 356 355 354 349 343 336 328 320 315 313 312 313 312 308 301 292 286 286 288 290
356 355 353 353 353 352 351 351 351 351 351 351 350 349 349 349 349 349 348 346 344 343 343 343 342 342 343 343 347 350 348 343 339 341 344 346 346 347 348 349 349 349 350 350 351 353 355 356 356 357 357 355 352 347 340 331 322 314 309 308 307 307 304 298 292 289 289 291 292
354 353 352 352 351 350 350 350 350 350 350 350 349 349 348 348 348 348 347 347 346 345 343 342 343 343 343 343 346 349 347 342 339 341 344 346 347 347 347 347 348 349 350 349 350 351 352 353 354 355 356 356 354 350 345 338 329 319 310 304 301 298 296 293 290 288 289 290 289
352 351 350 350 349 348 348 348 348 348 349 349 348 348 347 347 347 346 346 347 347 345 344 343 343 343 342 342 344 347 347 343 339 340 344 346 347 347 347 347 348 349 349 348 348 349 350 351 351 353 354 355 355 353 349 344 337 328 319 310 302 296 292 289 287 287 287 287 285
350 349 348 347 347 346 346 345 346 346 347 347 347 346 346 346 345 345 346 346 346 345 344 344 343 342 341 341 342 345 346 345 341 341 344 347 348 348 347 347 348 348 348 347 346 346 347 348 349 350 352 354 355 354 351 348 342 336 328 319 311 303 297 292 288 286 286 285 283
347 346 346 345 345 344 343 343 344 344 345 346 345 345 344 345 345 344 345 345 345 344 344 343 343 342 340 339 340 342 344 345 345 345 346 347 347 347 347 347 347 347 347 346 345 344 345 345 346 347 349 352 354 354 353 350 346 340 334 326 318 311 304 298 290 286 284 284 283
345 344 344 343 343 342 342 342 343 343 344 345 344 344 344 344 344 344 343 343 343 343 344 343 342 340 338 337 338 339 341 344 345 346 346 347 347 347 346 346 345 345 345 345 344 343 342 342 343 344 347 350 353 354 354 352 349 345 339 332 324 316 308 301 292 284 279 279 280
344 343 343 343 342 342 342 342 343 343 344 345 344 344 344 343 343 343 343 342 342 342 342 342 341 339 337 336 336 337 338 340 342 344 345 346 346 346 346 345 344 343 343 343 343 342 341 340 341 343 345 348 351 353 353 353 352 349 345 339 331 322 313 304 295 285 275 269 271
343 343 343 343 343 343 343 343 344 344 345 345 345 344 344 343 342 342 342 342 341 341 341 341 341 339 337 335 334 334 334 336 338 340 342 343 344 345 345 343 342 341 341 341 342 341 340 339 340 342 345 348 350 352 353 352 352 352 351 348 343 334 323 311 301 291 279 267 261
344 344 344 344 344 344 345 345 345 346 346 346 346 345 344 343 342 342 342 342 341 341 341 340 340 339 337 335 333 331 331 332 333 336 338 340 342 343 343 341 340 338 338 339 341 341 341 340 341 344 347 349 351 352 353 352 351 350 352 353 353 349 339 325 311 300 289 276 264
346 346 346 346 347 347 347 347 347 347 347 347 346 345 344 343 342 342 342 342 341 341 340 340 339 339 338 336 333 331 329 329 330 333 336 339 341 342 341 338 336 336 337 338 341 343 343 342 345 349 351 352 353 354 354 352 350 348 349 352 356 358 356 347 331 315 301 287 273
348 348 349 349 349 349 349 349 349 348 348 347 346 346 345 344 343 343 343 343 342 341 340 340 340 339 338 337 335 332 330 329 330 332 336 339 340 340 338 335 333 333 335 339 345 348 350 349 352 354 355 355 355 355 354 353 350 347 346 347 352 357 2 3 357 343 322 302 285
350 351 351 351 351 351 350 349 349 349 349 348 347 347 346 346 345 344 344 344 343 342 341 340 340 339 339 338 336 335 333 332 332 334 336 338 339 337 335 332 331 332 335 342 350 356 0 360 359 359 358 357 356 356 355 353 350 347 345 344 346 351 358 5 9 7 357 337 310
352 352 353 353 353 352 351 350 350 350 350 349 348 348 348 348 348 347 346 345 345 344 343 341 340 340 339 338 338 337 336 335 334 336 337 338 337 335 332 331 330 332 338 347 356 4 8 5 3 1 359 358 357 356 354 352 350 347 345 343 343 345 350 357 6 12 15 10 353
354 354 355 355 354 352 351 350 351 351 351 351 351 351 352 352 351 350 349 348 347 345 344 343 341 340 340 339 339 339 338 337 337 338 338 337 335 334 332 331 332 336 344 353 1 7 8 5 3 1 359 358 357 355 354 352 350 347 345 344 343 343 345 349 356 5 14 21 22
354 355 356 356 354 353 351 351 352 353 353 353 353 354 355 355 354 353 351 349 348 346 345 344 343 342 342 341 341 341 341 340 340 340 339 337 335 334 334 335 336 342 350 359 4 6 4 1 0 359 357 356 355 354 353 352 350 348 346 345 344 344 344 345 348 354 4 15 26
355 356 356 356 355 353 352 353 353 354 354 355 356 357 357 357 355 354 352 351 349 348 346 345 344 344 345 345 344 343 342 342 342 341 339 337 336 336 337 339 342 347 355 2 4 3 359 357 357 357 356 355 354 353 353 352 352 351 350 349 348 348 347 346 346 347 353 3 16
355 356 356 356 355 354 353 354 355 355 355 356 358 359 359 357 356 354 353 352 351 349 347 346 346 347 348 347 346 344 343 343 343 342 340 339 338 339 341 343 345 349 356 3 4 1 357 356 356 355 354 353 353 353 354 355 356 357 356 355 354 354 353 351 349 348 349 354 4
355 356 356 355 355 354 354 355 355 356 357 358 360 0 359 357 355 354 353 353 352 350 349 348 349 350 351 349 347 345 345 345 345 343 341 340 341 343 345 346 345 346 352 1 3 1 360 360 355 353 352 352 354 356 359 2 4 5 4 3 3 2 1 359 356 354 354 356 360
355 356 356 355 355 355 355 356 356 356 358 360 1 0 359 357 355 354 354 354 353 352 351 351 353 354 354 351 348 346 346 347 346 344 343 343 344 346 346 346 344 343 347 355 359 1 3 5 356 352 352 353 355 360 6 12 14 13 12 12 12 11 10 8 6 4 3 4 5
355 355 355 355 355 355 355 356 356 356 358 1 1 360 358 356 355 354 354 355 354 354 354 355 356 356 355 353 349 347 347 347 346 345 345 346 347 348 347 345 342 341 343 348 353 358 1 4 357 354 353 354 358 5 12 17 18 19 20 22 23 22 21 19 17 14 14 13 12
355 355 355 355 354 355 355 355 355 357 359 1 1 359 357 355 354 354 355 356 356 357 357 359 359 358 356 354 352 350 347 345 344 344 345 347 349 349 347 344 342 341 341 344 349 355 359 0 357 355 355 356 2 9 14 16 19 22 27 33 33 31 29 26 24 21 20 19 18
355 355 355 354 354 354 354 354 355 357 360 1 359 358 356 355 355 355 356 358 359 0 1 1 360 358 356 355 354 352 348 345 342 342 344 346 349 349 347 344 342 341 341 342 347 354 358 0 355 353 354 357 5 11 13 14 16 21 29 36 37 35 32 29 27 25 23 22 22
356 355 355 354 354 354 354 354 355 357 359 360 358 357 356 355 355 356 357 359 2 4 4 2 360 358 356 355 354 352 350 346 343 342 344 346 348 348 347 344 342 341 342 343 348 353 357 360 356 352 354 357 6 12 12 10 11 16 25 33 35 35 32 30 28 26 24 23 23
356 355 355 354 354 354 353 353 354 356 358 358 357 357 356 356 356 357 358 0 4 6 5 2 359 358 357 356 355 353 351 349 347 347 347 348 349 348 347 345 344 343 344 345 348 351 355 359 0 359 357 358 4 10 12 9 7 11 18 25 31 32 32 30 28 27 25 24 24
356 355 355 354 354 353 353 352 353 355 356 357 357 357 358 357 357 358 359 1 4 5 5 2 360 359 359 359 358 357 355 354 354 354 353 351 350 349 348 347 346 346 346 347 348 350 354 359 2 5 4 0 359 5 11 10 7 8 11 17 24 28 30 29 28 26 25 25 26
355 355 354 353 353 353 353 352 352 353 355 357 358 358 359 358 358 358 359 0 3 4 4 1 0 1 2 3 3 2 2 3 2 0 358 355 353 351 351 350 350 349 350 350 350 350 353 358 2 8 10 6 357 356 3 7 6 7 9 13 18 23 25 26 26 26 26 26 28
354 354 353 353 353 352 352 351 351 352 354 356 358 359 359 358 357 357 358 359 2 4 3 1 0 3 6 8 8 8 8 8 7 4 0 357 355 355 356 356 355 353 353 353 353 353 354 357 2 8 14 13 1 351 351 356 1 5 8 12 15 18 20 22 25 28 29 29 30
353 353 352 352 351 351 351 350 350 351 353 355 357 359 360 359 357 356 357 358 360 1 1 359 359 2 7 11 12 12 12 11 8 6 2 360 359 1 4 4 2 358 357 359 359 357 355 356 0 8 16 18 9 355 343 342 349 359 7 12 14 15 16 19 24 30 33 33 34
352 351 351 351 351 350 350 349 349 350 351 354 356 358 359 359 358 356 355 355 356 357 358 357 355 357 3 10 13 14 14 13 11 8 6 4 5 8 11 11 9 5 5 9 8 3 357 355 359 5 14 18 14 4 349 337 339 350 3 10 12 12 12 15 23 30 36 39 40
352 351 350 350 350 349 349 348 348 348 350 352 355 357 358 359 358 356 355 353 352 353 354 354 352 352 356 2 9 13 14 14 12 10 9 9 12 13 15 15 15 15 16 19 16 8 1 358 1 4 9 13 14 9 359 346 340 345 356 6 11 11 11 13 22 30 36 43 49
351 351 350 350 349 349 348 347 347 348 349 351 353 355 357 357 357 356 354 352 350 349 350 351 350 349 349 353 360 7 12 14 13 11 12 14 16 16 16 17 19 22 25 25 19 12 7 5 6 6 6 9 12 12 7 358 351 351 357 5 11 12 11 13 21 29 36 45 58
351 351 350 350 349 349 348 347 347 347 348 350 352 354 355 356 356 356 354 351 348 346 346 347 347 346 345 345 351 359 8 12 12 12 13 15 17 17 16 17 21 25 28 28 21 14 11 12 10 9 8 8 11 13 11 7 3 3 6 11 16 18 17 16 22 31 38 45 59
351 351 350 350 349 349 348 347 347 348 348 349 350 352 353 355 355 354 353 351 347 344 343 344 345 345 343 343 345 352 2 8 10 10 10 13 15 16 16 17 20 24 27 27 22 17 14 14 13 12 10 10 11 13 14 12 11 12 15 20 24 27 27 23 22 30 38 45 54
350 350 350 349 349 348 348 347 347 348 348 349 349 350 351 353 353 352 351 350 347 344 342 342 343 343 343 342 343 349 357 2 4 5 5 6 10 12 14 15 18 21 24 26 22 17 14 14 14 13 13 11 12 14 17 16 15 17 22 27 32 35 36 33 27 29 36 43 49
348 348 348 348 348 348 347 347 346 347 348 349 349 349 349 349 350 350 350 349 347 344 342 342 342 343 343 342 344 349 354 357 358 358 357 358 2 7 10 12 15 18 22 24 20 16 13 12 13 13 13 12 12 14 19 20 20 22 27 31 36 40 43 44 41 40 42 44 47
Height
1522 1521 1519 1518 1516 1515 1513 1512 1510 1508 1506 1504 1502 1500 1499 1497 1496 1494 1492 1490 1488 1487 1485 1483 1482 1480 1478 1476 1475 1473 1472 1470 1468 1467 1465 1463 1461 1458 1457 1454 1452 1450 1448 1446 1444 1442 1441 1438 1436 1434 1432 1431 1430 1429 1428 1427 1426 1425 1424 1423 1422 1422 1422 1421 1421 1421 1421 1421 1422
1522 1520 1519 1517 1516 1514 1512 1511 1509 1507 1505 1503 1502 1500 1498 1497 1495 1493 1491 1489 1487 1486 1484 1482 1481 1479 1477 1475 1474 1472 1471 1469 1467 1466 1464 1462 1460 1458 1456 1453 1452 1449 1447 1445 1443 1441 1439 1437 1434 1432 1431 1429 1428 1427 1426 1425 1425 1423 1422 1421 1421 1420 1419 1419 1418 1419 1419 1420 1420
1521 1519 1518 1516 1515 1513 1511 1509 1508 1506 1504 1502 1501 1500 1498 1497 1494 1492 1490 1488 1487 1485 1483 1481 1480 1478 1476 1474 1473 1471 1470 1468 1467 1465 1463 1461 1459 1457 1455 1453 1451 1448 1446 1444 1442 1440 1438 1436 1433 1431 1430 1428 1427 1426 1425 1424 1423 1422 1421 1420 1419 1418 1417 1417 1417 1417 1418 1417 1417
1520 1519 1517 1516 1514 1512 1511 1509 1507 1505 1503 1502 1500 1499 1497 1496 1494 1492 1489 1487 1486 1484 1482 1481 1479 1477 1476 1474 1472 1470 1469 1467 1466 1464 1462 1459 1457 1456 1454 1452 1450 1447 1445 1443 1441 1439 1437 1435 1432 1431 1429 1427 1426 1425 1423 1422 1422 1420 1419 1418 1417 1416 1416 1415 1415 1415 1415 1414 1414
1520 1518 1517 1515 1513 1512 1510 1509 1507 1505 1503 1501 1500 1498 1497 1495 1493 1491 1489 1487 1485 1483 1482 1480 1478 1477 1475 1473 1471 1469 1467 1467 1465 1463 1461 1458 1457 1455 1453 1451 1449 1447 1444 1442 1440 1438 1436 1434 1432 1430 1428 1426 1425 1423 1422 1421 1420 1419 1417 1416 1415 1414 1414 1413 1413 1413 1412 1412 1412
1519 1518 1516 1515 1513 1511 1510 1508 1506 1504 1502 1501 1499 1497 1496 1494 1492 1490 1488 1486 1484 1482 1481 1479 1478 1476 1474 1472 1470 1468 1467 1466 1464 1462 1460 1457 1456 1454 1452 1450 1448 1446 1444 1442 1440 1437 1435 1433 1431 1429 1427 1425 1423 1422 1421 1420 1418 1417 1416 1415 1414 1413 1412 1412 1411 1411 1410 1409 1409
1519 1517 1516 1514 1512 1511 1509 1507 1506 1504 1502 1500 1498 1497 1495 1493 1491 1489 1487 1486 1483 1482 1480 1478 1477 1475 1473 1472 1469 1468 1466 1465 1463 1461 1459 1457 1455 1453 1451 1449 1447 1446 1443 1442 1439 1437 1435 1433 1431 1429 1427 1424 1422 1421 1419 1418 1417 1415 1414 1413 1412 1412 1411 1410 1410 1409 1408 1407 1407
1518 1517 1515 1513 1512 1510 1508 1507 1505 1503 1501 1500 1498 1496 1494 1492 1490 1488 1487 1485 1483 1481 1479 1478 1476 1474 1473 1471 1469 1467 1466 1464 1463 1461 1458 1456 1454 1452 1451 1449 1447 1445 1443 1441 1439 1437 1435 1432 1431 1428 1426 1424 1422 1420 1418 1416 1415 1414 1412 1411 1410 1410 1409 1409 1408 1407 1407 1406 1405
1518 1516 1514 1513 1511 1509 1507 1506 1504 1502 1501 1499 1497 1495 1493 1492 1490 1488 1486 1484 1482 1480 1479 1477 1475 1474 1472 1470 1468 1467 1465 1464 1462 1460 1458 1456 1454 1452 1450 1448 1446 1444 1442 1441 1439 1437 1434 1432 1430 1428 1426 1424 1422 1419 1417 1415 1414 1412 1411 1410 1408 1407 1407 1406 1406 1406 1405 1404 1404
1517 1515 1514 1512 1510 1508 1507 1505 1503 1502 1500 1498 1496 1494 1492 1491 1489 1487 1485 1483 1481 1479 1478 1476 1474 1473 1471 1469 1468 1466 1464 1463 1461 1459 1457 1455 1453 1451 1449 1447 1445 1443 1442 1440 1438 1436 1434 1432 1430 1428 1426 1424 1422 1419 1417 1415 1413 1411 1409 1408 1407 1406 1405 1404 1404 1403 1403 1402 1402
1517 1515 1513 1511 1509 1507 1505 1504 1502 1500 1498 1497 1495 1493 1491 1489 1487 1486 1484 1482 1480 1479 1477 1475 1474 1472 1470 1469 1467 1465 1464 1462 1460 1459 1457 1455 1453 1451 1449 1447 1445 1443 1441 1439 1437 1436 1433 1431 1429 1427 1425 1423 1421 1419 1417 1415 1412 1410 1408 1407 1405 1404 1403 1402 1401 1401 1401 1401 1400
1516 1514 1512 1510 1508 1506 1504 1502 1501 1499 1497 1495 1493 1492 1490 1488 1486 1484 1482 1481 1479 1477 1476 1474 1473 1471 1469 1468 1466 1464 1463 1461 1460 1458 1456 1454 1452 1450 1448 1446 1444 1442 1440 1439 1437 1435 1433 1431 1429 1427 1425 1423 1421 1419 1417 1415 1412 1410 1408 1406 1404 1403 1402 1400 1400 1399 1399 1399 1399
1515 1513 1511 1509 1507 1505 1503 1501 1499 1497 1496 1494 1492 1490 1488 1487 1485 1483 1481 1479 1478 1476 1474 1473 1472 1470 1468 1467 1465 1463 1462 1460 1459 1457 1455 1453 1452 1450 1448 1446 1444 1442 1440 1438 1436 1434 1432 1430 1428 1426 1424 1422 1421 1419 1417 1415 1412 1410 1408 1405 1403 1402 1400 1399 1398 1397 1397 1397 1397
1513 1512 1510 1508 1506 1504 1502 1500 1498 1497 1495 1493 1491 1489 1487 1486 1484 1482 1480 1478 1477 1475 1473 1472 1470 1469 1467 1466 1464 1462 1461 1459 1458 1456 1455 1453 1451 1449 1447 1445 1443 1441 1439 1437 1436 1434 1432 1429 1427 1426 1424 1422 1420 1418 1417 1415 1413 1411 1408 1406 1403 1401 1399 1398 1397 1396 1395 1395 1395
1512 1511 1509 1507 1505 1503 1501 1499 1497 1496 1494 1492 1490 1488 1487 1485 1483 1481 1479 1477 1475 1474 1472 1470 1469 1467 1466 1465 1463 1462 1460 1458 1457 1455 1453 1452 1450 1448 1446 1444 1442 1440 1438 1436 1434 1432 1431 1428 1427 1425 1423 1422 1420 1418 1416 1414 1413 1411 1408 1406 1404 1401 1399 1397 1396 1395 1394 1393 1393
1511 1509 1507 1506 1504 1502 1500 1498 1497 1495 1493 1491 1489 1488 1486 1484 1482 1480 1478 1476 1474 1472 1471 1469 1467 1466 1464 1463 1462 1460 1459 1457 1456 1454 1452 1451 1449 1447 1445 1443 1441 1439 1437 1435 1433 1431 1429 1428 1426 1424 1423 1421 1419 1417 1416 1414 1412 1411 1408 1407 1404 1402 1399 1397 1395 1394 1393 1392 1392
1510 1508 1507 1505 1503 1501 1499 1498 1496 1494 1492 1491 1489 1487 1485 1483 1481 1479 1477 1476 1474 1472 1470 1468 1467 1465 1463 1462 1460 1459 1457 1456 1454 1453 1451 1450 1448 1446 1444 1442 1440 1438 1436 1434 1432 1430 1428 1427 1425 1424 1422 1421 1419 1417 1415 1413 1412 1410 1408 1406 1404 1402 1400 1397 1395 1394 1392 1391 1390
1509 1507 1506 1504 1502 1500 1498 1497 1496 1494 1492 1490 1488 1486 1484 1482 1480 1478 1477 1475 1473 1471 1469 1467 1466 1464 1462 1461 1459 1457 1456 1454 1453 1452 1450 1449 1447 1445 1443 1441 1438 1437 1435 1434 1432 1429 1427 1426 1425 1423 1422 1420 1418 1416 1415 1413 1411 1410 1408 1406 1404 1402 1401 1398 1396 1394 1392 1391 1389
1508 1507 1505 1503 1501 1499 1498 1496 1495 1493 1491 1489 1487 1485 1483 1482 1480 1477 1476 1474 1472 1470 1468 1466 1465 1463 1462 1460 1458 1457 1455 1453 1452 1451 1449 1448 1446 1444 1442 1439 1437 1436 1434 1433 1431 1428 1427 1425 1424 1422 1421 1419 1417 1416 1414 1412 1411 1409 1407 1405 1404 1402 1400 1399 1397 1395 1392 1391 1389
1508 1506 1504 1502 1501 1499 1497 1496 1494 1492 1491 1489 1487 1485 1482 1481 1479 1477 1475 1473 1471 1469 1467 1466 1464 1462 1460 1459 1457 1456 1454 1453 1451 1450 1448 1447 1445 1442 1440 1438 1436 1435 1434 1432 1429 1428 1426 1425 1423 1422 1420 1418 1417 1415 1413 1412 1410 1408 1407 1405 1403 1402 1400 1399 1397 1395 1393 1391 1389
1507 1506 1504 1502 1500 1499 1497 1495 1494 1492 1490 1488 1486 1484 1482 1480 1478 1476 1474 1472 1470 1468 1467 1465 1463 1461 1459 1458 1456 1455 1453 1452 1451 1449 1447 1445 1443 1441 1439 1437 1436 1435 1433 1430 1428 1427 1426 1424 1423 1421 1420 1418 1416 1414 1412 1411 1409 1408 1406 1404 1403 1401 1400 1398 1397 1395 1394 1392 1390
1507 1506 1504 1502 1500 1499 1497 1495 1493 1492 1490 1488 1486 1483 1481 1479 1477 1476 1474 1472 1470 1468 1466 1464 1462 1461 1459 1457 1455 1454 1452 1451 1450 1448 1447 1445 1443 1441 1438 1437 1436 1434 1432 1428 1426 1425 1425 1424 1423 1421 1419 1417 1416 1414 1412 1411 1409 1407 1405 1404 1402 1401 1399 1398 1397 1395 1394 1393 1391
1507 1505 1503 1502 1500 1498 1497 1495 1493 1491 1489 1487 1485 1483 1481 1479 1477 1475 1473 1471 1469 1467 1465 1463 1462 1460 1458 1457 1455 1453 1452 1450 1449 1447 1446 1444 1442 1440 1438 1437 1435 1433 1431 1428 1425 1424 1425 1425 1422 1421 1419 1417 1415 1413 1412 1410 1408 1407 1405 1403 1402 1401 1399 1398 1397 1395 1394 1393 1392
1507 1505 1503 1502 1500 1498 1496 1494 1492 1490 1488 1486 1484 1482 1480 1478 1476 1474 1472 1470 1468 1467 1465 1463 1461 1459 1457 1456 1454 1453 1451 1450 1448 1446 1445 1443 1441 1439 1437 1436 1434 1432 1430 1428 1424 1425 1427 1425 1422 1420 1418 1417 1415 1413 1412 1410 1408 1406 1405 1403 1402 1401 1399 1398 1397 1395 1394 1393 1392
1507 1505 1503 1502 1500 1498 1496 1494 1492 1490 1488 1486 1484 1482 1480 1478 1476 1474 1472 1470 1468 1466 1464 1462 1460 1458 1457 1455 1454 1452 1451 1449 1447 1446 1444 1442 1440 1439 1437 1435 1433 1432 1430 1428 1424 1426 1428 1425 1423 1420 1418 1417 1415 1413 1412 1410 1408 1407 1405 1404 1402 1401 1399 1398 1397 1396 1394 1393 1392
1507 1505 1503 1501 1499 1497 1495 1493 1492 1490 1487 1485 1483 1481 1479 1477 1475 1473 1471 1469 1467 1465 1463 1461 1459 1458 1456 1455 1453 1452 1450 1449 1447 1445 1443 1442 1440 1438 1437 1435 1433 1431 1430 1428 1426 1427 1427 1425 1423 1421 1418 1417 1415 1413 1412 1410 1409 1407 1406 1404 1403 1401 1400 1398 1397 1396 1395 1394 1393
1506 1504 1502 1501 1499 1497 1495 1493 1491 1489 1487 1485 1482 1481 1479 1477 1475 1473 1471 1469 1467 1465 1463 1461 1459 1457 1456 1454 1453 1451 1450 1448 1447 1445 1443 1442 1440 1438 1436 1435 1433 1431 1429 1428 1426 1426 1427 1426 1423 1421 1419 1417 1415 1413 1412 1410 1409 1408 1407 1405 1403 1402 1400 1399 1398 1397 1396 1394 1393
1506 1504 1502 1500 1498 1497 1495 1493 1491 1488 1486 1484 1482 1481 1479 1477 1475 1472 1471 1468 1467 1464 1462 1460 1459 1457 1456 1454 1452 1451 1449 1448 1447 1445 1443 1442 1440 1438 1437 1435 1433 1431 1430 1428 1426 1425 1426 1426 1423 1421 1419 1417 1415 1413 1412 1411 1410 1408 1407 1406 1404 1403 1401 1400 1399 1398 1397 1395 1394
1505 1503 1502 1500 1498 1496 1494 1492 1490 1488 1486 1484 1482 1481 1479 1477 1474 1472 1470 1468 1466 1464 1462 1461 1459 1458 1456 1454 1452 1451 1449 1448 1446 1445 1443 1441 1440 1438 1437 1435 1433 1431 1430 1428 1427 1425 1425 1426 1422 1420 1418 1417 1415 1414 1412 1411 1410 1409 1408 1406 1405 1404 1402 1401 1400 1399 1397 1397 1395
1505 1503 1501 1499 1498 1496 1494 1492 1490 1488 1486 1484 1482 1481 1478 1476 1474 1472 1470 1468 1466 1464 1463 1462 1460 1458 1456 1454 1452 1451 1449 1447 1446 1445 1443 1441 1440 1438 1437 1435 1433 1431 1430 1428 1427 1425 1424 1424 1421 1419 1418 1417 1415 1414 1413 1412 1411 1409 1408 1407 1406 1405 1403 1402 1401 1400 1398 1397 1396
1505 1503 1501 1499 1497 1496 1494 1492 1490 1488 1487 1484 1482 1480 1478 1476 1474 1472 1470 1468 1466 1465 1464 1462 1461 1459 1457 1455 1453 1451 1449 1447 1446 1445 1443 1441 1440 1438 1437 1435 1433 1432 1430 1428 1427 1425 1424 1424 1421 1419 1418 1417 1416 1414 1413 1412 1411 1410 1409 1408 1407 1406 1405 1403 1402 1401 1399 1398 1397
1504 1502 1501 1499 1497 1495 1494 1492 1490 1488 1486 1484 1482 1480 1478 1476 1474 1472 1470 1468 1467 1465 1463 1462 1460 1458 1457 1455 1453 1451 1449 1448 1446 1445 1443 1442 1440 1438 1437 1435 1433 1432 1430 1428 1427 1426 1425 1424 1422 1419 1418 1417 1416 1415 1413 1412 1411 1410 1409 1408 1407 1407 1406 1404 1403 1402 1400 1399 1398
1504 1502 1501 1499 1497 1495 1493 1492 1490 1488 1486 1484 1482 1480 1478 1476 1474 1472 1470 1468 1467 1465 1464 1462 1460 1458 1457 1455 1453 1451 1449 1448 1447 1445 1444 1442 1440 1438 1437 1435 1433 1432 1430 1429 1428 1427 1425 1424 1422 1420 1418 1417 1416 1415 1414 1413 1412 1411 1410 1409 1408 1407 1406 1405 1404 1403 1402 1400 1399
1504 1502 1500 1498 1497 1495 1493 1491 1490 1488 1486 1484 1482 1480 1478 1476 1474 1472 1470 1468 1467 1466 1464 1463 1461 1459 1458 1456 1454 1452 1450 1449 1447 1446 1444 1442 1441 1439 1437 1435 1434 1432 1431 1430 1428 1427 1426 1424 1422 1421 1419 1417 1417 1415 1414 1413 1412 1411 1410 1410 1409 1408 1407 1406 1405 1404 1403 1401 1400
1503 1502 1500 1498 1496 1494 1492 1491 1489 1487 1486 1483 1482 1480 1478 1476 1474 1472 1470 1468 1467 1466 1465 1463 1462 1460 1458 1457 1455 1453 1451 1449 1447 1446 1444 1443 1441 1439 1437 1436 1434 1433 1432 1430 1429 1428 1427 1425 1423 1421 1419 1417 1417 1416 1415 1414 1413 1412 1411 1410 1410 1409 1408 1407 1406 1405 1404 1402 1402
1503 1501 1499 1497 1496 1494 1492 1491 1489 1487 1485 1483 1481 1479 1477 1476 1474 1472 1470 1468 1467 1466 1464 1463 1462 1460 1458 1457 1455 1453 1451 1450 1448 1447 1445 1443 1441 1439 1437 1436 1434 1433 1432 1430 1429 1428 1427 1426 1423 1421 1419 1418 1417 1416 1415 1414 1413 1412 1412 1411 1410 1409 1408 1407 1406 1405 1405 1404 1403
1503 1501 1499 1497 1495 1494 1492 1490 1489 1487 1485 1483 1481 1479 1477 1475 1474 1472 1470 1468 1467 1465 1464 1463 1461 1460 1458 1457 1455 1454 1452 1450 1449 1447 1446 1444 1442 1440 1438 1437 1435 1433 1432 1430 1429 1428 1427 1426 1423 1422 1420 1418 1417 1416 1415 1414 1413 1413 1412 1412 1411 1410 1409 1408 1407 1406 1406 1405 1404
1503 1501 1499 1497 1495 1493 1492 1490 1488 1487 1485 1483 1481 1479 1477 1475 1473 1472 1470 1468 1467 1465 1464 1462 1461 1460 1458 1457 1456 1454 1452 1451 1449 1448 1446 1444 1442 1441 1439 1437 1435 1434 1432 1430 1429 1429 1427 1426 1425 1423 1421 1419 1417 1416 1415 1415 1414 1413 1413 1412 1412 1411 1410 1409 1408 1407 1407 1406 1406
1503 1501 1499 1497 1495 1493 1492 1490 1488 1487 1485 1482 1481 1479 1477 1475 1473 1472 1470 1469 1467 1466 1464 1462 1461 1460 1458 1457 1456 1454 1453 1451 1450 1448 1447 1445 1443 1442 1440 1438 1436 1434 1432 1431 1430 1429 1428 1427 1425 1424 1422 1420 1418 1417 1416 1415 1415 1414 1414 1413 1412 1412 1411 1410 1409 1408 1408 1407 1407
1502 1501 1499 1497 1495 1493 1492 1490 1488 1487 1485 1482 1481 1478 1477 1475 1473 1472 1471 1469 1467 1466 1464 1463 1461 1460 1458 1457 1456 1454 1453 1451 1450 1449 1447 1446 1444 1442 1441 1439 1437 1435 1433 1432 1430 1429 1428 1427 1426 1425 1423 1421 1420 1418 1417 1416 1416 1415 1414 1414 1413 1412 1412 1411 1410 1410 1409 1409 1408
1502 1501 1499 1497 1495 1493 1492 1490 1488 1486 1485 1483 1481 1479 1477 1475 1474 1472 1470 1469 1467 1466 1464 1462 1461 1460 1458 1457 1455 1454 1452 1451 1450 1448 1447 1446 1444 1443 1442 1440 1438 1436 1434 1432 1431 1431 1429 1428 1427 1426 1424 1423 1421 1420 1418 1417 1417 1416 1415 1415 1414 1413 1412 1412 1411 1411 1410 1410 1409